This demonstration page uses our WeatherBlox Daily Observations layout. Learn more.

Left ArrowRight Arrow

44.8408, -93.29828

Hourly Observations for July 19, 2021

Temp ( °F °C ) Dew Point ( °F °C ) Humidity (%) Winds ( mph kmh ) Pressure ( in mb ) Visibility ( mi km ) Precip ( " mm )
12:53 am 00:53 Clear 75 23.9 61 16.1 62 62 S 6 9 30.18 1022 10 16 0.00 0.00
1:53 am 01:53 Clear 74 23.3 61 16.1 64 64 SSW 5 7 30.18 1022 10 16 0.00 0.00
2:53 am 02:53 Clear 70 21.1 62 16.7 76 76 Calm 30.19 1022 10 16 0.00 0.00
3:53 am 03:53 Clear 71 21.7 62 16.7 73 73 SSW 5 7 30.19 1022 10 16 0.00 0.00
4:53 am 04:53 Clear 70 21.1 62 16.7 76 76 SSW 3 6 30.19 1022 10 16 0.00 0.00
5:53 am 05:53 Mostly Sunny 69 20.6 62 16.7 78 78 SW 3 6 30.20 1023 8 13 0.00 0.00
6:53 am 06:53 Sunny 68 20 63 17.2 84 84 VRB 3 6 30.19 1022 8 13 0.00 0.00
7:53 am 07:53 Sunny 72 22.2 63 17.2 73 73 WSW 5 7 30.20 1023 9 14 0.00 0.00
8:53 am 08:53 Sunny 76 24.4 62 16.7 62 62 W 7 11 30.20 1023 9 14 0.00 0.00
9:53 am 09:53 Sunny 79 26.1 61 16.1 54 54 SW 10 17 30.19 1022 10 16 0.00 0.00
10:53 am 10:53 Sunny 83 28.3 59 15 44 44 W 6 9 30.19 1022 10 16 0.00 0.00
11:53 am 11:53 Mostly Sunny 83 28.3 57 13.9 41 41 VRB 3 6 30.20 1023 10 16 0.00 0.00
12:53 pm 12:53 Mostly Sunny 85 29.4 58 14.4 40 40 Calm 30.18 1022 10 16 0.00 0.00
1:53 pm 13:53 Mostly Sunny 88 31.1 57 13.9 35 35 VRB 5 7 30.17 1022 10 16 0.00 0.00
2:53 pm 14:53 Mostly Cloudy 88 31.1 55 12.8 33 33 VRB 3 6 30.15 1021 10 16 0.00 0.00
3:53 pm 15:53 Mostly Cloudy 88 31.1 55 12.8 33 33 W 8 13 30.15 1021 10 16 0.00 0.00
4:53 pm 16:53 Mostly Cloudy 87 30.6 57 13.9 36 36 W 5 7 30.12 1020 10 16 0.00 0.00
5:53 pm 17:53 Mostly Cloudy 87 30.6 60 15.6 40 40 W 7 11 30.10 1019 10 16 0.00 0.00
6:53 pm 18:53 Mostly Cloudy 86 30 62 16.7 45 45 W 9 15 30.10 1019 10 16 0.00 0.00
7:53 pm 19:53 Mostly Cloudy 84 28.9 64 17.8 51 51 W 10 17 30.09 1019 10 16 0.00 0.00
8:53 pm 20:53 Mostly Cloudy 83 28.3 64 17.8 53 53 WSW 7 11 30.08 1019 10 16 0.00 0.00
9:53 pm 21:53 Mostly Cloudy 81 27.2 65 18.3 58 58 W 7 11 30.09 1019 10 16 0.00 0.00
10:53 pm 22:53 Mostly Clear 79 26.1 65 18.3 62 62 W 9 15 30.13 1020 10 16 0.00 0.00
11:53 pm 23:53 Mostly Clear 78 25.6 66 18.9 67 67 W 8 13 30.13 1020 10 16 0.00 0.00

Powered by AerisWeather